Weather History for K9V9 - April, 2013

Change the Weather History Date:

Thursday, April 25, 2013

  Actual Average Record
Temperature  
Mean Temperature 50 °F -  
Max Temperature 75 °F 59 °F 81 °F (2012)
Min Temperature 25 °F 37 °F 25 °F (2013)
Degree Days  
Heating Degree Days 15    
Moisture  
Dew Point 24 °F    
Average Humidity 45    
Maximum Humidity 85    
Minimum Humidity 13    
Precipitation  
Precipitation 0.00 in - - ()
Sea Level Pressure  
Sea Level Pressure 30.00 in    
Wind  
Wind Speed 8 mph (South)    
Max Wind Speed 22 mph    
Max Gust Speed 32 mph    
Averages and records for this station are not official NWS values.
T = Trace of Precipitation, MM = Missing Value Source: NWS Daily Summary

Daily Weather History Graph

Daily Weather History Graph

Search for Another Location

Airport or City:

Trip Planner

Search our weather history database for the weather conditions in past years. The results will help you decide how hot, cold, wet, or windy it might be!

Date:

Astronomy

Apr. 25, 2013 Rise Set
Actual Time 6:37 AM CDT 8:33 PM CDT
Civil Twilight 6:06 AM CDT 9:04 PM CDT
Nautical Twilight 5:29 AM CDT 9:42 PM CDT
Astronomical Twilight 4:48 AM CDT 10:23 PM CDT
Moon 8:49 PM CDT (4/25) 6:22 AM CDT (4/25)
Length of Visible Light 14h 57m
Length of Day
13h 55m
Full, 100% of the Moon is Illuminated
Apr 25
Full
Apr 25
Full
May 2
Last Quarter
May 9
New
May 17
First Quarter

Hourly Weather History & Observations

Time (CDT) Temp. Windchill Dew Point Humidity Pressure Visibility Wind Dir Wind Speed Gust Speed Precip Events Conditions
12:52 AM 30.0 °F 26.5 °F 21.0 °F 69% 30.19 in - NE 3.5 mph - N/A   Unknown
1:52 AM 28.9 °F 23.9 °F 21.0 °F 72% 30.19 in - SSE 4.6 mph - N/A   Unknown
2:52 AM 28.0 °F 22.8 °F 19.9 °F 72% 30.19 in - SSE 4.6 mph - N/A   Unknown
3:52 AM 28.9 °F 23.9 °F 21.0 °F 72% 30.17 in - SSE 4.6 mph - N/A   Unknown
4:52 AM 27.0 °F 19.5 °F 21.0 °F 78% 30.17 in - South 6.9 mph - N/A   Unknown
5:52 AM 26.1 °F 19.4 °F 19.9 °F 78% 30.17 in - SE 5.8 mph - N/A   Unknown
6:52 AM 25.0 °F 18.1 °F 21.0 °F 85% 30.16 in - SSE 5.8 mph - N/A   Unknown
7:52 AM 30.9 °F 24.3 °F 25.0 °F 79% 30.15 in - SSE 6.9 mph - N/A   Unknown
8:52 AM 37.0 °F 31.0 °F 28.9 °F 73% 30.13 in - South 8.1 mph - N/A   Unknown
9:52 AM 44.1 °F 38.6 °F 30.9 °F 60% 30.08 in - ESE 10.4 mph - N/A   Unknown
10:52 AM 52.0 °F - 30.9 °F 45% 30.06 in - South 13.8 mph - N/A   Unknown
11:52 AM 57.0 °F - 30.9 °F 37% 30.02 in - South 19.6 mph 28.8 mph N/A   Unknown
12:52 PM 62.1 °F - 32.0 °F 32% 29.98 in - South 21.9 mph 29.9 mph N/A   Unknown
1:52 PM 66.0 °F - 28.9 °F 25% 29.94 in - South 21.9 mph 31.1 mph N/A   Unknown
2:52 PM 69.1 °F - 28.0 °F 22% 29.90 in - SSW 18.4 mph 32.2 mph N/A   Unknown
3:52 PM 72.0 °F - 26.1 °F 18% 29.86 in - SSW 16.1 mph 28.8 mph N/A   Unknown
4:52 PM 75.0 °F - 19.9 °F 13% 29.82 in - WSW 20.7 mph 27.6 mph N/A   Unknown
5:52 PM 73.9 °F - 19.9 °F 13% 29.81 in - West 17.3 mph 23.0 mph N/A   Unknown
6:52 PM 73.0 °F - 19.9 °F 14% 29.81 in - West 12.7 mph - N/A   Unknown
7:52 PM 66.9 °F - 19.9 °F 17% 29.80 in - NNW 3.5 mph - N/A   Unknown
8:52 PM 64.0 °F - 21.9 °F 20% 29.81 in - NNE 4.6 mph - N/A   Unknown
9:52 PM 61.0 °F - 21.0 °F 21% 29.83 in - North 4.6 mph - N/A   Unknown
10:52 PM 54.0 °F - 26.1 °F 34% 29.85 in - NNE 5.8 mph - N/A   Unknown
11:52 PM 52.0 °F - 26.1 °F 37% 29.87 in - North 5.8 mph - N/A   Unknown